GW5374 Weather Reports


time (UTC)temp
C
wind
direction
speed
KPH
gust
KPH
rain 1hr
cm
rain 24hr
cm
rain mn
cm
humidity
%
barometer
mb
20260506185506 22 80 3.2 16.1 0.00 0.00 0.00 75 1013.1
20260506185007 22 42 4.8 14.5 0.00 0.00 0.00 74 1013.1
20260506184520 22 63 6.4 12.9 0.00 0.00 0.00 73 1012.9
20260506184010 22 32 3.2 11.3 0.00 0.00 0.00 75 1012.9
20260506183512 22 46 1.6 9.7 0.00 0.00 0.00 74 1012.9
20260506183024 22 26 3.2 14.5 0.00 0.00 0.00 73 1012.9
20260506182507 22 20 8.0 14.5 0.00 0.00 0.00 74 1012.9
20260506182002 22 26 3.2 16.1 0.00 0.00 0.00 73 1012.9
20260506181506 22 37 4.8 16.1 0.00 0.00 0.00 73 1013.0
20260506181003 22 59 3.2 14.5 0.00 0.00 0.00 75 1012.9
20260506180503 22 49 1.6 14.5 0.00 0.00 0.00 75 1012.8
20260506180010 21 63 3.2 16.1 0.00 0.00 0.00 74 1012.7
20260506175504 21 106 1.6 16.1 0.00 0.00 0.00 76 1012.8
20260506175008 21 29 3.2 8.0 0.00 0.00 0.00 75 1012.6
20260506174515 21 42 3.2 8.0 0.00 0.00 0.00 75 1012.6
20260506174009 21 24 1.6 8.0 0.00 0.00 0.00 78 1012.6
20260506173507 20 38 3.2 11.3 0.00 0.00 0.00 79 1012.7
20260506173026 20 88 3.2 11.3 0.00 0.00 0.00 79 1012.8
20260506172507 20 55 3.2 8.0 0.00 0.00 0.00 78 1012.8
20260506172012 20 41 4.8 9.7 0.00 0.00 0.00 78 1012.9
20260506171504 20 90 3.2 14.5 0.00 0.00 0.00 80 1012.8
20260506171005 19 119 4.8 14.5 0.00 0.00 0.00 80 1012.8
20260506170504 19 105 3.2 9.7 0.00 0.00 0.00 80 1013.0
20260506170003 18 106 1.6 9.7 0.00 0.00 0.00 79 1013.1
20260506165503 18 115 3.2 16.1 0.00 0.00 0.00 80 1012.9
20260506165002 18 67 3.2 16.1 0.00 0.00 0.00 81 1013.2
20260506164503 18 40 4.8 19.3 0.00 0.00 0.00 83 1013.4
20260506164002 18 113 6.4 19.3 0.00 0.00 0.00 84 1013.5
20260506163502 17 118 4.8 12.9 0.00 0.00 0.00 86 1013.5
20260506163008 17 89 4.8 19.3 0.00 0.00 0.00 88 1013.5
20260506162503 16 39 4.8 19.3 0.00 0.00 0.00 88 1013.7
20260506162005 16 36 8.0 22.5 0.00 0.00 0.00 89 1014.0
20260506161503 16 42 11.3 22.5 0.00 0.00 0.00 89 1014.1
20260506161003 16 65 6.4 24.1 0.00 0.00 0.00 88 1014.6
20260506160505 16 36 9.7 25.7 0.00 0.00 0.00 88 1014.9
20260506160010 17 33 11.3 24.1 0.00 0.00 0.00 88 1014.5
20260506155506 17 33 9.7 20.9 0.00 0.00 0.00 1014.4
20260506155004 17 65 6.4 17.7 0.00 0.00 0.00 86 1014.7
20260506154503 17 32 4.8 24.1 0.00 0.00 0.00 86 1014.2
20260506154003 18 326 8.0 24.1 0.00 0.00 0.00 86 1014.2
20260506153503 18 304 4.8 16.1 0.00 0.00 0.00 87 1014.3
20260506153003 18 47 8.0 16.1 0.00 0.00 0.00 87 1014.1
20260506152502 18 69 6.4 17.7 0.00 0.00 0.00 86 1013.6
20260506152004 19 48 6.4 19.3 0.00 0.00 0.00 85 1013.3
20260506151504 20 53 4.8 20.9 0.00 0.00 0.00 83 1013.1
20260506151003 21 99 8.0 25.7 0.00 0.00 0.00 82 1013.2
20260506150503 22 38 9.7 25.7 0.00 0.00 0.00 80 1012.7
20260506150008 23 17 9.7 19.3 0.00 0.00 0.00 79 1012.7
20260506145505 25 25 1.6 4.8 0.00 0.00 0.00 86 1012.3
20260506145004 25 239 0.0 3.2 0.00 0.00 0.00 85 1011.9
20260506144507 25 174 0.0 3.2 0.00 0.00 0.00 86 1011.6
20260506144005 25 134 0.0 3.2 0.00 0.00 0.00 85 1011.5
20260506143503 25 259 0.0 6.4 0.00 0.00 0.00 84 1011.5
20260506143011 25 207 0.0 6.4 0.00 0.00 0.00 85 1011.3
20260506142504 25 173 1.6 4.8 0.00 0.00 0.00 84 1011.2
20260506142002 25 205 1.6 4.8 0.00 0.00 0.00 85 1011.1
20260506141503 25 210 0.0 3.2 0.00 0.00 0.00 86 1010.9
20260506141003 25 211 0.0 3.2 0.00 0.00 0.00 86 1011.0
20260506140504 24 200 0.0 4.8 0.00 0.00 0.00 87 1011.2
20260506140005 24 201 0.0 4.8 0.00 0.00 0.00 88 1011.5
20260506135503 24 167 0.0 3.2 0.00 0.00 0.00 88 1011.4
20260506135006 24 198 0.0 8.0 0.00 0.00 0.00 87 1011.1
20260506134520 24 188 1.6 8.0 0.00 0.00 0.00 87 1010.9
20260506134005 24 201 1.6 8.0 0.00 0.00 0.00 87 1011.0
20260506133504 24 227 1.6 8.0 0.00 0.00 0.00 87 1010.9
20260506133011 24 180 1.6 8.0 0.00 0.00 0.00 88 1010.9
20260506132505 23 187 1.6 8.0 0.00 0.00 0.00 89 1010.8
20260506132003 23 203 1.6 4.8 0.00 0.00 0.00 89 1010.8
20260506131510 23 178 0.0 3.2 0.00 0.00 0.00 90 1010.6
20260506131005 23 190 0.0 4.8 0.00 0.00 0.00 90 1010.6
20260506130504 23 162 0.0 4.8 0.00 0.00 0.00 90 1010.6
20260506130005 23 194 0.0 3.2 0.00 0.00 0.00 90 1010.6
20260506125502 23 194 0.0 3.2 0.00 0.00 0.00 91 1010.4
20260506125004 23 188 0.0 4.8 0.00 0.00 0.00 91 1010.4
20260506124513 23 192 0.0 4.8 0.00 0.00 0.00 91 1010.4
20260506124004 23 202 0.0 3.2 0.00 0.00 0.00 91 1010.3
20260506123504 22 205 0.0 3.2 0.00 0.00 0.00 91 1010.3
20260506123010 22 203 0.0 3.2 0.00 0.00 0.00 91 1010.3
20260506122506 22 170 0.0 3.2 0.00 0.00 0.00 91 1010.3
20260506122003 22 175 0.0 3.2 0.00 0.00 0.00 91 1010.3
20260506121514 22 175 0.0 0.0 0.00 0.00 0.00 91 1010.3
20260506121005 22 175 0.0 0.0 0.00 0.00 0.00 91 1010.3
20260506120507 23 175 0.0 0.0 0.00 0.00 0.00 90 1010.3
20260506120014 23 175 0.0 3.2 0.00 0.00 0.00 90 1010.2
20260506115505 23 175 0.0 3.2 0.00 0.00 0.00 91 1010.1
20260506115003 23 175 0.0 3.2 0.00 0.00 0.00 91 1010.1
20260506114515 23 251 0.0 0.0 0.00 0.00 0.00 90 1010.1
20260506114002 23 251 0.0 0.0 0.00 0.00 0.00 90 1010.2
20260506113502 23 251 0.0 0.0 0.00 0.00 0.00 90 1010.2
20260506113010 23 250 0.0 0.0 0.00 0.00 0.00 90 1010.3
20260506112505 23 250 0.0 0.0 0.00 0.00 0.00 90 1010.3
20260506112006 23 251 0.0 0.0 0.00 0.00 0.00 90 1010.2
20260506111513 23 251 0.0 0.0 0.00 0.00 0.00 90 1010.2
20260506111006 23 250 0.0 0.0 0.00 0.00 0.00 90 1010.2
20260506110507 23 251 0.0 0.0 0.00 0.00 0.00 89 1010.1
20260506110018 23 251 0.0 0.0 0.00 0.00 0.00 89 1010.1
20260506105506 23 251 0.0 1.6 0.00 0.00 0.00 89 1010.1
20260506105007 23 251 0.0 1.6 0.00 0.00 0.00 89 1009.9
20260506104519 23 250 0.0 0.0 0.00 0.00 0.00 89 1010.0
20260506104005 23 251 0.0 0.0 0.00 0.00 0.00 89 1009.9
20260506103503 23 250 0.0 3.2 0.00 0.00 0.00 89 1009.8
20260506103018 23 251 0.0 3.2 0.00 0.00 0.00 89 1009.8
20260506102507 23 250 0.0 3.2 0.00 0.00 0.00 89 1009.9
20260506102006 23 200 0.0 3.2 0.00 0.00 0.00 89 1009.8
20260506101514 23 200 0.0 3.2 0.00 0.00 0.00 89 1009.8
20260506101003 23 207 0.0 3.2 0.00 0.00 0.00 89 1009.7
20260506100506 23 185 0.0 3.2 0.00 0.00 0.00 89 1009.6
20260506100030 23 185 0.0 3.2 0.00 0.00 0.00 89 1009.7
20260506095507 23 185 0.0 3.2 0.00 0.00 0.00 89 1009.5
20260506095009 23 185 0.0 3.2 0.00 0.00 0.00 89 1009.4
20260506094519 23 134 0.0 3.2 0.00 0.00 0.00 89 1009.4
20260506094005 23 225 0.0 3.2 0.00 0.00 0.00 89 1009.3
20260506093505 23 198 0.0 3.2 0.00 0.00 0.00 89 1009.2
20260506093021 23 187 0.0 6.4 0.00 0.00 0.00 89 1009.2
20260506092502 23 187 0.0 6.4 0.00 0.00 0.00 89 1009.2
20260506092002 23 186 0.0 6.4 0.00 0.00 0.00 89 1009.2
20260506091511 23 201 0.0 3.2 0.00 0.00 0.00 89 1009.0
20260506091006 23 217 0.0 3.2 0.00 0.00 0.00 89 1009.0
20260506090505 23 217 0.0 3.2 0.00 0.00 0.00 89 1008.8
20260506090020 23 210 0.0 4.8 0.00 0.00 0.00 89 1008.8
20260506085506 23 205 0.0 3.2 0.00 0.00 0.00 89 1008.9
20260506085006 23 200 0.0 3.2 0.00 0.00 0.00 89 1008.9
20260506084525 23 226 0.0 3.2 0.00 0.00 0.00 89 1008.8
20260506084008 23 234 0.0 3.2 0.00 0.00 0.00 88 1008.8
20260506083507 23 269 0.0 3.2 0.00 0.00 0.00 88 1008.8
20260506083022 23 203 0.0 3.2 0.00 0.00 0.00 88 1008.8
20260506082508 23 158 0.0 3.2 0.00 0.00 0.00 88 1008.8
20260506082009 23 186 1.6 3.2 0.00 0.00 0.00 88 1008.7
20260506081506 23 212 0.0 3.2 0.00 0.00 0.00 88 1008.8
20260506081008 23 207 1.6 3.2 0.00 0.00 0.00 88 1008.8
20260506080503 23 205 1.6 3.2 0.00 0.00 0.00 88 1008.8
20260506073506 23 210 0.0 3.2 0.00 0.00 0.00 88 1009.1
20260506073007 23 234 0.0 3.2 0.00 0.00 0.00 88 1009.0
20260506072504 23 192 0.0 3.2 0.00 0.00 0.00 88 1009.1
20260506072003 23 201 0.0 3.2 0.00 0.00 0.00 88 1009.1
20260506071510 23 240 0.0 9.7 0.00 0.00 0.00 88 1009.2
20260506071005 23 197 1.6 9.7 0.00 0.00 0.00 88 1009.1
20260506070504 23 217 1.6 3.2 0.00 0.00 0.00 88 1009.1
20260506062503 23 209 1.6 6.4 0.00 0.00 0.00 88 1009.1
20260506062003 23 236 1.6 9.7 0.00 0.00 0.00 88 1009.1
20260506061505 23 221 0.0 9.7 0.00 0.00 0.00 88 1009.1
20260506061004 23 238 1.6 8.0 0.00 0.00 0.00 88 1008.9
20260506060506 23 284 1.6 6.4 0.00 0.00 0.00 88 1009.1
20260506051003 23 227 1.6 11.3 0.00 0.00 0.00 88 1009.3
20260506050504 23 177 0.0 4.8 0.00 0.00 0.00 88 1009.3
20260506045004 23 214 1.6 11.3 0.00 0.00 0.00 88 1009.1
20260506044518 23 202 3.2 9.7 0.00 0.00 0.00 87 1009.2
20260506044008 23 206 1.6 8.0 0.00 0.00 0.00 87 1009.3
20260506043508 23 161 1.6 8.0 0.00 0.00 0.00 87 1009.3
20260506043018 23 223 1.6 6.4 0.00 0.00 0.00 87 1009.1
20260506042508 24 203 0.0 4.8 0.00 0.00 0.00 86 1009.1
20260506042008 24 226 0.0 4.8 0.00 0.00 0.00 86 1009.1
20260506041523 24 212 0.0 4.8 0.00 0.00 0.00 86 1009.2
20260506041003 24 306 0.0 4.8 0.00 0.00 0.00 86 1009.1
20260506040503 24 212 1.6 6.4 0.00 0.00 0.00 86 1009.0
20260506040008 24 208 3.2 6.4 0.00 0.00 0.00 86 1009.0
20260506035503 24 217 1.6 11.3 0.00 0.00 0.00 86 1009.0
20260506035004 24 337 1.6 11.3 0.00 0.00 0.00 85 1008.8
20260506034512 24 116 1.6 11.3 0.00 0.00 0.00 85 1008.7
20260506034003 24 148 1.6 8.0 0.00 0.00 0.00 85 1008.7
20260506033508 25 199 1.6 6.4 0.00 0.00 0.00 85 1008.8
20260506033016 25 240 1.6 6.4 0.00 0.00 0.00 85 1008.8
20260506032509 25 243 1.6 12.9 0.00 0.00 0.00 84 1008.6
20260506032009 25 233 1.6 12.9 0.00 0.00 0.00 84 1008.6
20260506031527 25 167 1.6 12.9 0.00 0.00 0.00 84 1008.6
20260506031009 25 196 1.6 8.0 0.00 0.00 0.00 84 1008.4
20260506030507 25 180 1.6 8.0 0.00 0.00 0.00 84 1008.4
20260506030025 25 188 0.0 6.4 0.00 0.00 0.00 83 1008.3
20260506025507 25 209 0.0 11.3 0.00 0.00 0.00 83 1008.3
20260506025004 25 272 1.6 11.3 0.00 0.00 0.00 83 1008.3
20260506024527 25 209 1.6 4.8 0.00 0.00 0.00 82 1008.1
20260506024004 25 236 1.6 12.9 0.00 0.00 0.00 81 1008.0
20260506023504 25 200 0.0 12.9 0.00 0.00 0.00 81 1007.8
20260506023015 25 188 1.6 6.4 0.00 0.00 0.00 80 1007.6
20260506022503 25 236 0.0 3.2 0.00 0.00 0.00 80 1007.5
20260506022013 26 209 0.0 4.8 0.00 0.00 0.00 79 1007.5
20260506021522 26 203 1.6 4.8 0.00 0.00 0.00 79 1007.5
20260506021007 26 221 0.0 3.2 0.00 0.00 0.00 79 1007.4
20260506020508 26 144 0.0 8.0 0.00 0.00 0.00 79 1007.3
20260506020025 26 239 1.6 8.0 0.00 0.00 0.00 79 1007.1
20260506015511 26 224 0.0 6.4 0.00 0.00 0.00 79 1007.2
20260506015011 26 163 0.0 4.8 0.00 0.00 0.00 79 1007.2
20260506014527 26 197 0.0 6.4 0.00 0.00 0.00 78 1007.2
20260506014004 26 188 1.6 6.4 0.00 0.00 0.00 78 1007.1
20260506013504 26 206 0.0 9.7 0.00 0.00 0.00 78 1007.1
20260506013012 26 248 1.6 9.7 0.00 0.00 0.00 78 1007.1
20260506012505 26 161 1.6 6.4 0.00 0.00 0.00 77 1007.1
20260506012007 26 209 0.0 4.8 0.00 0.00 0.00 77 1007.0
20260506011541 26 169 1.6 6.4 0.00 0.00 0.00 77 1007.0
20260506011007 26 196 1.6 6.4 0.00 0.00 0.00 77 1007.1
20260506010511 26 214 0.0 4.8 0.00 0.00 0.00 76 1007.1
20260506010004 26 202 0.0 6.4 0.00 0.00 0.00 77 1007.1
20260506005501 26 196 0.0 6.4 0.00 0.00 0.00 76 1007.1
20260506005002 27 194 0.0 4.8 0.00 0.00 0.00 76 1007.1
20260506004507 27 174 1.6 3.2 0.00 0.00 0.00 76 1007.1
20260506004003 27 200 0.0 3.2 0.00 0.00 0.00 76 1007.1
20260506003503 27 166 0.0 3.2 0.00 0.00 0.00 75 1007.1
20260506003013 27 200 0.0 3.2 0.00 0.00 0.00 75 1007.1
20260506002504 27 203 0.0 4.8 0.00 0.00 0.00 76 1007.1
20260506002006 27 196 0.0 4.8 0.00 0.00 0.00 75 1007.1
20260506001512 27 128 0.0 4.8 0.00 0.00 0.00 75 1007.1
20260506001002 27 204 0.0 3.2 0.00 0.00 0.00 74 1007.0
20260506000506 27 194 0.0 3.2 0.00 0.00 0.00 74 1007.1
20260506000002 27 219 0.0 3.2 0.00 0.00 0.00 73 1007.0
20260505235502 27 177 0.0 3.2 0.00 0.00 0.00 73 1006.9
20260505235003 27 225 0.0 3.2 0.00 0.00 0.00 73 1006.9
20260505234504 27 246 1.6 4.8 0.00 0.00 0.00 73 1006.8
20260505234005 27 202 1.6 9.7 0.00 0.00 0.00 72 1006.8
20260505233501 27 215 0.0 12.9 0.00 0.00 0.00 73 1006.6
20260505233008 27 226 1.6 12.9 0.00 0.00 0.00 73 1006.7
20260505232505 27 229 1.6 4.8 0.00 0.00 0.00 72 1006.7
20260505232003 27 221 1.6 4.8 0.00 0.00 0.00 72 1006.7
20260505231514 27 236 0.0 3.2 0.00 0.00 0.00 72 1006.7
20260505231006 27 221 0.0 3.2 0.00 0.00 0.00 71 1006.6
20260505230507 27 209 0.0 4.8 0.00 0.00 0.00 71 1006.6
20260505230042 27 255 0.0 4.8 0.00 0.00 0.00 71 1006.6
20260505225505 27 233 0.0 4.8 0.00 0.00 0.00 71 1006.6
20260505225003 27 189 1.6 14.5 0.00 0.00 0.00 71 1006.5
20260505224504 28 254 0.0 14.5 0.00 0.00 0.00 70 1006.6
20260505224003 28 209 1.6 9.7 0.00 0.00 0.00 70 1006.5
20260505223503 28 212 1.6 9.7 0.00 0.00 0.00 69 1006.5
20260505223005 28 211 3.2 9.7 0.00 0.00 0.00 70 1006.4
20260505222505 28 166 0.0 3.2 0.00 0.00 0.00 70 1006.4
20260505222005 28 202 0.0 3.2 0.00 0.00 0.00 69 1006.5
20260505221514 28 221 0.0 11.3 0.00 0.00 0.00 70 1006.6
20260505221006 28 239 1.6 11.3 0.00 0.00 0.00 69 1006.6
20260505220506 28 185 1.6 8.0 0.00 0.00 0.00 69 1006.6
20260505220015 28 237 1.6 9.7 0.00 0.00 0.00 69 1006.7
20260505215505 28 248 1.6 9.7 0.00 0.00 0.00 69 1006.6
20260505215007 28 149 1.6 4.8 0.00 0.00 0.00 70 1006.8
20260505214504 27 232 1.6 4.8 0.00 0.00 0.00 69 1007.0
20260505214003 28 269 1.6 6.4 0.00 0.00 0.00 69 1007.0
20260505213506 28 90 0.0 6.4 0.00 0.00 0.00 69 1007.0
20260505213006 28 288 1.6 4.8 0.00 0.00 0.00 69 1007.0
20260505212502 28 280 0.0 6.4 0.00 0.00 0.00 70 1007.1
20260505212008 27 248 0.0 6.4 0.00 0.00 0.00 71 1007.3
20260505211518 27 234 0.0 4.8 0.00 0.00 0.00 71 1007.3
20260505211005 27 136 0.0 4.8 0.00 0.00 0.00 73 1007.2
20260505210505 27 207 1.6 6.4 0.00 0.00 0.00 72 1007.2
20260505210017 27 82 1.6 4.8 0.00 0.00 0.00 71 1007.4
20260505205509 27 265 1.6 6.4 0.00 0.00 0.00 70 1007.4
20260505205005 28 240 1.6 6.4 0.00 0.00 0.00 70 1007.5
20260505204519 28 211 0.0 3.2 0.00 0.00 0.00 72 1007.4
20260505204007 27 222 0.0 12.9 0.00 0.00 0.00 73 1007.4
20260505203506 27 246 3.2 12.9 0.00 0.00 0.00 73 1007.5
20260505203008 27 139 1.6 6.4 0.00 0.00 0.00 72 1007.8
20260505202503 27 182 1.6 11.3 0.00 0.00 0.00 73 1007.8
20260505202003 27 250 1.6 11.3 0.00 0.00 0.00 72 1007.9
20260505201506 27 263 3.2 14.5 0.00 0.00 0.00 73 1007.9
20260505201003 27 232 0.0 14.5 0.00 0.00 0.00 73 1008.1
20260505200503 27 162 3.2 11.3 0.00 0.00 0.00 74 1008.1
20260505200009 27 225 1.6 12.9 0.00 0.00 0.00 74 1008.2
20260505195505 27 188 1.6 12.9 0.00 0.00 0.00 74 1008.4
20260505195003 27 165 0.0 9.7 0.00 0.00 0.00 75 1008.4
20260505194517 27 254 0.0 9.7 0.00 0.00 0.00 74 1008.4
20260505194007 27 259 1.6 4.8 0.00 0.00 0.00 74 1008.6
20260505193509 26 257 1.6 8.0 0.00 0.00 0.00 74 1008.6
20260505193025 26 226 0.0 8.0 0.00 0.00 0.00 76 1008.7
20260505192507 26 229 3.2 8.0 0.00 0.00 0.00 75 1008.6
20260505192012 26 231 1.6 8.0 0.00 0.00 0.00 75 1008.7
20260505191503 26 304 1.6 3.2 0.00 0.00 0.00 73 1008.7
20260505191004 26 205 0.0 3.2 0.00 0.00 0.00 75 1008.6
20260505190503 27 227 0.0 8.0 0.00 0.00 0.00 75 1008.7
20260505190012 26 265 0.0 8.0 0.00 0.00 0.00 75 1008.8